Change the Weather History Date:

Wednesday, November 14, 2012

  Actual Average Record
Temperature  
Mean Temperature 34 °F -  
Max Temperature 41 °F 37 °F 59 °F (2011)
Min Temperature 26 °F 26 °F 19 °F (1996)
Degree Days  
Heating Degree Days 32    
Moisture  
Dew Point 24 °F    
Average Humidity 72    
Maximum Humidity 93    
Minimum Humidity 36    
Precipitation  
Precipitation 0.00 in 0.11 in - ()
Sea Level Pressure  
Sea Level Pressure 30.57 in    
Wind  
Wind Speed 3 mph ()    
Max Wind Speed 14 mph    
Max Gust Speed -    
Visibility 9.1 miles    
Events      
Averages and records for this station are not official NWS values.
T = Trace of Precipitation, MM = Missing Value Source: Averaged Metar Reports

Daily Weather History Graph

Daily Weather History Graph

Search for Another Location

Airport or City:

Trip Planner

Search our weather history database for the weather conditions in past years. The results will help you decide how hot, cold, wet, or windy it might be!

Date:

Astronomy

Nov. 14, 2012 Rise Set
Actual Time 7:14 AM EST 4:57 PM EST
Civil Twilight 6:43 AM EST 5:27 PM EST
Nautical Twilight 6:09 AM EST 6:02 PM EST
Astronomical Twilight 5:35 AM EST 6:36 PM EST
Moon 8:03 AM EST (11/14) 5:42 PM EST (11/14)
Length of Visible Light 10h 44m
Length of Day
9h 42m
New Moon, 1% of the Moon is Illuminated
Nov 14
New Moon
Nov 20
First Quarter
Nov 28
Full
Dec 6
Last Quarter
Dec 13
New

Hourly Weather History & Observations

Time (EST) Temp. Windchill Dew Point Humidity Pressure Visibility Wind Dir Wind Speed Gust Speed Precip Events Conditions
12:00 AM 30.2 °F 26.7 °F 23.0 °F 75% 30.56 in 9.0 mi WSW 3.5 mph - N/A   Overcast
1:00 AM 31 °F - 23 °F 62% 30.56 in 10 mi SW 3.5 mph - -   Overcast
1:00 AM 30.2 °F 26.7 °F 23.0 °F 75% 30.56 in 9.0 mi SW 3.5 mph - N/A   Overcast
2:00 AM 30.2 °F - 23.0 °F 75% 30.57 in 9.0 mi SW 2.3 mph - N/A   Overcast
3:00 AM 30.2 °F - 24.8 °F 80% 30.57 in 9.0 mi Variable 2.3 mph - N/A   Overcast
4:00 AM 30.2 °F - 24.8 °F 80% 30.58 in 9.0 mi Calm Calm - N/A   Overcast
5:00 AM 30.2 °F - 24.8 °F 80% 30.59 in 9.0 mi Calm Calm - N/A   Overcast
6:00 AM 28.4 °F - 24.8 °F 86% 30.60 in 9.0 mi Variable 2.3 mph - N/A   Overcast
7:00 AM 27 °F - 24 °F 82% 30.60 in 10 mi NE 1.2 mph - -  
7:00 AM 26.6 °F - 23.0 °F 86% 30.60 in 9.0 mi Calm Calm - N/A   Mostly Cloudy
8:00 AM 26.6 °F - 24.8 °F 93% 30.62 in 9.0 mi Calm Calm - N/A   Overcast
9:00 AM 30.2 °F - 26.6 °F 86% 30.63 in 9.0 mi Calm Calm - N/A   Overcast
10:00 AM 33.8 °F - 24.8 °F 70% 30.63 in 9.0 mi Variable 2.3 mph - N/A   Overcast
11:00 AM 35.6 °F - 23.0 °F 60% 30.62 in 9.0 mi Variable 2.3 mph - N/A   Overcast
12:00 PM 39.2 °F 33.6 °F 21.2 °F 49% 30.60 in 9.0 mi SE 8.1 mph - N/A   Mostly Cloudy
1:00 PM 41 °F - 23 °F 36% 30.58 in 10 mi SE 8.1 mph - -  
1:00 PM 41.0 °F 33.5 °F 23.0 °F 49% 30.58 in 9.0 mi SSE 13.8 mph - N/A   Mostly Cloudy
2:00 PM 39.2 °F 37.0 °F 21.2 °F 49% 30.56 in 9.0 mi East 3.5 mph - N/A   Scattered Clouds
3:00 PM 39.2 °F 34.2 °F 23.0 °F 52% 30.54 in 9.0 mi ESE 6.9 mph - N/A   Mostly Cloudy
4:00 PM 37.4 °F 34.9 °F 23.0 °F 56% 30.54 in 9.0 mi SE 3.5 mph - N/A   Clear
5:00 PM 35.6 °F 30.7 °F 24.8 °F 65% 30.54 in 9.0 mi East 5.8 mph - N/A   Partly Cloudy
6:00 PM 32.0 °F 27.5 °F 24.8 °F 75% 30.54 in 9.0 mi East 4.6 mph - N/A   Clear
7:00 PM 31 °F - 24 °F 67% 30.53 in 10 mi East 4.6 mph - -  
7:00 PM 32.0 °F 27.5 °F 24.8 °F 75% 30.53 in 9.0 mi East 4.6 mph - N/A   Clear
8:00 PM 30.2 °F 25.4 °F 24.8 °F 80% 30.53 in 9.0 mi East 4.6 mph - N/A   Clear
9:00 PM 28.4 °F 24.6 °F 26.6 °F 93% 30.52 in 9.0 mi ENE 3.5 mph - N/A   Scattered Clouds
10:00 PM 26.6 °F 22.6 °F 24.8 °F 93% 30.51 in 9.0 mi NE 3.5 mph - N/A   Scattered Clouds
11:00 PM 28.4 °F - 26.6 °F 93% 30.49 in 9.0 mi Calm Calm - N/A   Overcast